Wetterdaten: Montag, 20.02.2017
Datum Zeit Temp. Auen Feucht Auen Luftdruck Regen Richtung Richtung Windben
20.02.2017 00:00 0,8 C 95 % 1025,2 hPa 0,0 mm W 269 0,0 km/h (0 Bft)
20.02.2017 00:05 0,8 C 95 % 1025,2 hPa 0,0 mm W 269 0,0 km/h (0 Bft)
20.02.2017 00:10 0,8 C 95 % 1025,2 hPa 0,0 mm W 269 0,0 km/h (0 Bft)
20.02.2017 00:15 0,8 C 94 % 1025,2 hPa 0,0 mm W 269 0,0 km/h (0 Bft)
20.02.2017 00:20 0,8 C 94 % 1025,2 hPa 0,0 mm W 269 0,0 km/h (0 Bft)
20.02.2017 00:25 0,6 C 94 % 1025,1 hPa 0,0 mm W 269 0,0 km/h (0 Bft)
20.02.2017 00:30 0,6 C 94 % 1025,1 hPa 0,0 mm W 269 0,0 km/h (0 Bft)
20.02.2017 00:35 0,7 C 95 % 1025,2 hPa 0,0 mm W 269 0,0 km/h (0 Bft)
20.02.2017 00:40 0,7 C 95 % 1025,2 hPa 0,0 mm W 269 0,0 km/h (0 Bft)
20.02.2017 00:45 0,7 C 95 % 1025,1 hPa 0,0 mm W 269 0,0 km/h (0 Bft)
20.02.2017 00:50 0,6 C 95 % 1025,1 hPa 0,0 mm W 269 0,0 km/h (0 Bft)
20.02.2017 00:55 0,8 C 95 % 1025,0 hPa 0,0 mm W 269 0,0 km/h (0 Bft)
20.02.2017 01:00 0,8 C 95 % 1025,0 hPa 0,0 mm W 269 0,0 km/h (0 Bft)
20.02.2017 01:05 0,7 C 95 % 1025,1 hPa 0,0 mm W 269 0,0 km/h (0 Bft)
20.02.2017 01:10 0,7 C 95 % 1025,0 hPa 0,0 mm W 269 0,0 km/h (0 Bft)
20.02.2017 01:15 0,8 C 95 % 1025,1 hPa 0,0 mm W 269 0,0 km/h (0 Bft)
20.02.2017 01:20 0,8 C 95 % 1025,0 hPa 0,0 mm W 269 0,0 km/h (0 Bft)
20.02.2017 01:25 0,9 C 95 % 1025,1 hPa 0,0 mm W 269 3,2 km/h (1 Bft)
20.02.2017 01:30 1,0 C 95 % 1025,1 hPa 0,0 mm W 269 0,0 km/h (0 Bft)
20.02.2017 01:35 1,1 C 95 % 1025,3 hPa 0,0 mm W 269 3,2 km/h (1 Bft)
20.02.2017 01:40 1,1 C 95 % 1025,3 hPa 0,2 mm W 269 0,0 km/h (0 Bft)
20.02.2017 01:45 1,1 C 95 % 1025,2 hPa 0,0 mm W 269 0,0 km/h (0 Bft)
20.02.2017 01:50 1,1 C 95 % 1025,2 hPa 0,0 mm W 269 0,0 km/h (0 Bft)
20.02.2017 01:55 1,1 C 95 % 1025,3 hPa 0,0 mm W 269 4,8 km/h (1 Bft)
20.02.2017 02:00 1,1 C 95 % 1025,3 hPa 0,0 mm W 269 4,8 km/h (1 Bft)
20.02.2017 02:05 1,2 C 95 % 1025,2 hPa 0,0 mm W 269 1,6 km/h (1 Bft)
20.02.2017 02:10 1,2 C 95 % 1025,2 hPa 0,0 mm W 269 3,2 km/h (1 Bft)
20.02.2017 02:15 1,2 C 95 % 1025,1 hPa 0,0 mm W 269 1,6 km/h (1 Bft)
20.02.2017 02:20 1,2 C 95 % 1025,0 hPa 0,0 mm W 269 1,6 km/h (1 Bft)
20.02.2017 02:25 1,3 C 95 % 1025,0 hPa 0,0 mm W 269 3,2 km/h (1 Bft)
20.02.2017 02:30 1,3 C 95 % 1025,0 hPa 0,0 mm W 269 3,2 km/h (1 Bft)
20.02.2017 02:35 1,3 C 95 % 1025,0 hPa 0,0 mm W 269 1,6 km/h (1 Bft)
20.02.2017 02:40 1,3 C 95 % 1025,0 hPa 0,0 mm W 269 0,0 km/h (0 Bft)
20.02.2017 02:45 1,3 C 95 % 1025,0 hPa 0,2 mm W 269 1,6 km/h (1 Bft)
20.02.2017 02:50 1,4 C 95 % 1025,0 hPa 0,0 mm W 269 0,0 km/h (0 Bft)
20.02.2017 02:55 1,4 C 95 % 1025,0 hPa 0,0 mm W 269 1,6 km/h (1 Bft)
20.02.2017 03:00 1,4 C 95 % 1024,9 hPa 0,0 mm W 269 0,0 km/h (0 Bft)
20.02.2017 03:05 1,4 C 95 % 1024,9 hPa 0,0 mm W 269 0,0 km/h (0 Bft)
20.02.2017 03:10 1,5 C 95 % 1025,0 hPa 0,0 mm W 269 4,8 km/h (1 Bft)
20.02.2017 03:15 1,6 C 95 % 1025,0 hPa 0,0 mm W 269 3,2 km/h (1 Bft)
20.02.2017 03:20 1,7 C 95 % 1024,9 hPa 0,2 mm W 269 1,6 km/h (1 Bft)
20.02.2017 03:25 1,8 C 95 % 1024,9 hPa 0,0 mm W 265 6,4 km/h (2 Bft)
20.02.2017 03:30 1,8 C 95 % 1024,8 hPa 0,0 mm W 274 6,4 km/h (2 Bft)
20.02.2017 03:35 1,9 C 95 % 1024,9 hPa 0,2 mm W 267 8,0 km/h (2 Bft)
20.02.2017 03:40 1,9 C 95 % 1024,9 hPa 0,0 mm W 268 8,0 km/h (2 Bft)
20.02.2017 03:45 1,8 C 95 % 1024,9 hPa 0,0 mm W 269 6,4 km/h (2 Bft)
20.02.2017 03:50 1,8 C 95 % 1025,0 hPa 0,2 mm W 271 8,0 km/h (2 Bft)
20.02.2017 03:55 1,7 C 95 % 1025,0 hPa 0,0 mm W 268 4,8 km/h (1 Bft)
20.02.2017 04:00 1,7 C 95 % 1025,0 hPa 0,0 mm W 267 4,8 km/h (1 Bft)
20.02.2017 04:05 1,6 C 95 % 1024,9 hPa 0,0 mm W 267 4,8 km/h (1 Bft)
20.02.2017 04:10 1,6 C 95 % 1024,9 hPa 0,0 mm W 267 3,2 km/h (1 Bft)
20.02.2017 04:15 1,6 C 95 % 1024,8 hPa 0,0 mm W 267 4,8 km/h (1 Bft)
20.02.2017 04:20 1,6 C 95 % 1024,8 hPa 0,0 mm W 268 3,2 km/h (1 Bft)
20.02.2017 04:25 1,6 C 95 % 1024,7 hPa 0,0 mm W 272 6,4 km/h (2 Bft)
20.02.2017 04:30 1,7 C 95 % 1024,8 hPa 0,0 mm W 271 4,8 km/h (1 Bft)
20.02.2017 04:35 1,6 C 95 % 1024,9 hPa 0,0 mm W 271 4,8 km/h (1 Bft)
20.02.2017 04:40 1,6 C 95 % 1024,9 hPa 0,2 mm W 271 4,8 km/h (1 Bft)
20.02.2017 04:45 1,6 C 95 % 1025,0 hPa 0,0 mm W 271 4,8 km/h (1 Bft)
20.02.2017 04:50 1,5 C 95 % 1025,0 hPa 0,2 mm W-NW 286 6,4 km/h (2 Bft)
20.02.2017 04:55 1,5 C 95 % 1024,8 hPa 0,0 mm W 267 4,8 km/h (1 Bft)
20.02.2017 05:00 1,6 C 95 % 1024,9 hPa 0,0 mm W 272 3,2 km/h (1 Bft)
20.02.2017 05:05 1,6 C 95 % 1024,8 hPa 0,0 mm W 272 3,2 km/h (1 Bft)
20.02.2017 05:10 1,5 C 95 % 1024,9 hPa 0,0 mm W 272 1,6 km/h (1 Bft)
20.02.2017 05:15 1,5 C 95 % 1024,8 hPa 0,0 mm W 272 0,0 km/h (0 Bft)
20.02.2017 05:20 1,5 C 95 % 1024,9 hPa 0,0 mm W 272 0,0 km/h (0 Bft)
20.02.2017 05:25 1,5 C 95 % 1024,8 hPa 0,0 mm W 272 0,0 km/h (0 Bft)
20.02.2017 05:30 1,5 C 95 % 1024,9 hPa 0,0 mm W 272 0,0 km/h (0 Bft)
20.02.2017 05:35 1,5 C 95 % 1024,9 hPa 0,0 mm W 272 0,0 km/h (0 Bft)
20.02.2017 05:40 1,5 C 95 % 1024,9 hPa 0,2 mm W 272 0,0 km/h (0 Bft)
20.02.2017 05:45 1,5 C 95 % 1025,0 hPa 0,0 mm W 272 3,2 km/h (1 Bft)
20.02.2017 05:50 1,5 C 95 % 1024,9 hPa 0,2 mm W 272 0,0 km/h (0 Bft)
20.02.2017 05:55 1,5 C 95 % 1024,9 hPa 0,2 mm W 272 0,0 km/h (0 Bft)
20.02.2017 06:00 1,5 C 95 % 1024,9 hPa 0,0 mm W 272 0,0 km/h (0 Bft)
20.02.2017 06:05 1,4 C 95 % 1024,8 hPa 0,2 mm W 272 0,0 km/h (0 Bft)
20.02.2017 06:10 1,5 C 95 % 1024,8 hPa 0,0 mm W 272 0,0 km/h (0 Bft)
20.02.2017 06:15 1,4 C 95 % 1024,9 hPa 0,0 mm W 272 0,0 km/h (0 Bft)
20.02.2017 06:20 1,4 C 95 % 1024,8 hPa 0,0 mm W 272 0,0 km/h (0 Bft)
20.02.2017 06:25 1,4 C 95 % 1024,9 hPa 0,0 mm W 272 0,0 km/h (0 Bft)
20.02.2017 06:30 1,4 C 95 % 1025,0 hPa 0,0 mm W 272 0,0 km/h (0 Bft)
20.02.2017 06:35 1,5 C 95 % 1025,0 hPa 0,2 mm W 272 1,6 km/h (1 Bft)
20.02.2017 06:40 1,5 C 95 % 1025,1 hPa 0,0 mm W 272 1,6 km/h (1 Bft)
20.02.2017 06:45 1,5 C 95 % 1025,1 hPa 0,0 mm W 272 0,0 km/h (0 Bft)
20.02.2017 06:50 1,4 C 95 % 1025,0 hPa 0,0 mm W 272 1,6 km/h (1 Bft)
20.02.2017 06:55 1,4 C 95 % 1025,1 hPa 0,0 mm W 272 0,0 km/h (0 Bft)
20.02.2017 07:00 1,5 C 95 % 1025,0 hPa 0,0 mm W 272 1,6 km/h (1 Bft)
20.02.2017 07:05 1,3 C 96 % 1025,1 hPa 0,0 mm W 272 0,0 km/h (0 Bft)
20.02.2017 07:10 1,1 C 95 % 1025,2 hPa 0,0 mm W 272 0,0 km/h (0 Bft)
20.02.2017 07:15 1,3 C 96 % 1025,3 hPa 0,0 mm W 272 1,6 km/h (1 Bft)
20.02.2017 07:20 1,2 C 96 % 1025,2 hPa 0,0 mm W 272 0,0 km/h (0 Bft)
20.02.2017 07:25 1,2 C 96 % 1025,2 hPa 0,0 mm W 272 0,0 km/h (0 Bft)
20.02.2017 07:30 1,3 C 96 % 1025,3 hPa 0,2 mm W 272 0,0 km/h (0 Bft)
20.02.2017 07:35 1,4 C 95 % 1025,3 hPa 0,0 mm W 272 0,0 km/h (0 Bft)
20.02.2017 07:40 1,4 C 95 % 1025,3 hPa 0,0 mm W 272 0,0 km/h (0 Bft)
20.02.2017 07:45 1,4 C 95 % 1025,3 hPa 0,0 mm W 272 0,0 km/h (0 Bft)
20.02.2017 07:50 1,3 C 96 % 1025,4 hPa 0,0 mm W 272 0,0 km/h (0 Bft)
20.02.2017 07:55 1,3 C 96 % 1025,4 hPa 0,0 mm W 272 0,0 km/h (0 Bft)
20.02.2017 08:00 1,4 C 96 % 1025,4 hPa 0,0 mm W 272 1,6 km/h (1 Bft)
20.02.2017 08:05 1,4 C 95 % 1025,5 hPa 0,0 mm W 272 0,0 km/h (0 Bft)
20.02.2017 08:10 1,5 C 96 % 1025,4 hPa 0,2 mm W 267 1,6 km/h (1 Bft)
20.02.2017 08:15 1,4 C 95 % 1025,4 hPa 0,0 mm N 355 1,6 km/h (1 Bft)
20.02.2017 08:20 1,4 C 96 % 1025,4 hPa 0,0 mm N 355 0,0 km/h (0 Bft)
20.02.2017 08:25 1,4 C 96 % 1025,4 hPa 0,0 mm N 355 1,6 km/h (1 Bft)
20.02.2017 08:30 1,6 C 96 % 1025,4 hPa 0,0 mm N 355 0,0 km/h (0 Bft)
20.02.2017 08:35 1,6 C 96 % 1025,4 hPa 0,0 mm NW 321 3,2 km/h (1 Bft)
20.02.2017 08:40 1,6 C 96 % 1025,4 hPa 0,0 mm NW 321 4,8 km/h (1 Bft)
20.02.2017 08:45 1,7 C 96 % 1025,4 hPa 0,0 mm NW 321 0,0 km/h (0 Bft)
20.02.2017 08:50 1,8 C 96 % 1025,4 hPa 0,0 mm NW 321 0,0 km/h (0 Bft)
20.02.2017 08:55 1,8 C 96 % 1025,4 hPa 0,0 mm NW 321 0,0 km/h (0 Bft)
20.02.2017 09:00 1,8 C 96 % 1025,4 hPa 0,0 mm NW 321 0,0 km/h (0 Bft)
20.02.2017 09:05 1,6 C 95 % 1025,4 hPa 0,0 mm NW 321 0,0 km/h (0 Bft)
20.02.2017 09:10 1,7 C 96 % 1025,4 hPa 0,0 mm NW 321 0,0 km/h (0 Bft)
20.02.2017 09:15 1,7 C 96 % 1025,4 hPa 0,0 mm NO 53 3,2 km/h (1 Bft)
20.02.2017 09:20 1,5 C 95 % 1025,4 hPa 0,0 mm NO 53 1,6 km/h (1 Bft)
20.02.2017 09:25 1,5 C 95 % 1025,4 hPa 0,0 mm NO 53 0,0 km/h (0 Bft)
20.02.2017 09:30 1,4 C 96 % 1025,4 hPa 0,0 mm NO 53 0,0 km/h (0 Bft)
20.02.2017 09:35 1,6 C 96 % 1025,5 hPa 0,0 mm NO 53 0,0 km/h (0 Bft)
20.02.2017 09:40 1,7 C 96 % 1025,5 hPa 0,0 mm NO 53 0,0 km/h (0 Bft)
20.02.2017 09:45 1,7 C 96 % 1025,5 hPa 0,0 mm NO 53 0,0 km/h (0 Bft)
20.02.2017 09:50 1,6 C 96 % 1025,5 hPa 0,0 mm NO 53 0,0 km/h (0 Bft)
20.02.2017 09:55 1,6 C 96 % 1025,5 hPa 0,0 mm NO 53 0,0 km/h (0 Bft)
20.02.2017 10:00 1,6 C 96 % 1025,5 hPa 0,0 mm NO 53 0,0 km/h (0 Bft)
20.02.2017 10:05 1,7 C 96 % 1025,4 hPa 0,0 mm NO 53 0,0 km/h (0 Bft)
20.02.2017 10:10 1,6 C 96 % 1025,3 hPa 0,0 mm NO 53 0,0 km/h (0 Bft)
20.02.2017 10:15 1,6 C 96 % 1025,3 hPa 0,0 mm NO 53 0,0 km/h (0 Bft)
20.02.2017 10:20 1,7 C 96 % 1025,4 hPa 0,0 mm NO 53 0,0 km/h (0 Bft)
20.02.2017 10:25 1,9 C 96 % 1025,4 hPa 0,0 mm NO 53 0,0 km/h (0 Bft)
20.02.2017 10:30 1,9 C 96 % 1025,4 hPa 0,0 mm NO 53 0,0 km/h (0 Bft)
20.02.2017 10:35 1,8 C 96 % 1025,4 hPa 0,0 mm NO 53 0,0 km/h (0 Bft)
20.02.2017 10:40 1,7 C 96 % 1025,5 hPa 0,0 mm NO 53 0,0 km/h (0 Bft)
20.02.2017 10:45 1,7 C 96 % 1025,5 hPa 0,0 mm NO 53 0,0 km/h (0 Bft)
20.02.2017 10:50 1,8 C 96 % 1025,5 hPa 0,0 mm NO 53 0,0 km/h (0 Bft)
20.02.2017 10:55 1,6 C 96 % 1025,4 hPa 0,0 mm NO 53 0,0 km/h (0 Bft)
20.02.2017 11:00 1,7 C 96 % 1025,4 hPa 0,0 mm NO 53 0,0 km/h (0 Bft)
20.02.2017 11:05 1,7 C 96 % 1025,5 hPa 0,0 mm NO 53 0,0 km/h (0 Bft)
20.02.2017 11:10 1,7 C 96 % 1025,5 hPa 0,0 mm NO 53 0,0 km/h (0 Bft)
20.02.2017 11:15 1,7 C 96 % 1025,6 hPa 0,0 mm NO 53 0,0 km/h (0 Bft)
20.02.2017 11:20 1,8 C 96 % 1025,5 hPa 0,0 mm NO 53 0,0 km/h (0 Bft)
20.02.2017 11:25 1,9 C 96 % 1025,6 hPa 0,0 mm NO 53 0,0 km/h (0 Bft)
20.02.2017 11:30 1,9 C 96 % 1025,5 hPa 0,0 mm NO 53 0,0 km/h (0 Bft)
20.02.2017 11:35 1,9 C 96 % 1025,4 hPa 0,0 mm NO 53 0,0 km/h (0 Bft)
20.02.2017 11:40 2,0 C 96 % 1025,3 hPa 0,0 mm NO 53 0,0 km/h (0 Bft)
20.02.2017 11:45 2,0 C 96 % 1025,2 hPa 0,0 mm NO 53 0,0 km/h (0 Bft)
20.02.2017 11:50 2,3 C 96 % 1025,1 hPa 0,0 mm NO 53 0,0 km/h (0 Bft)
20.02.2017 11:55 2,3 C 96 % 1024,9 hPa 0,0 mm NO 53 0,0 km/h (0 Bft)
20.02.2017 12:00 2,4 C 96 % 1024,8 hPa 0,0 mm NO 53 0,0 km/h (0 Bft)
20.02.2017 12:05 2,6 C 96 % 1024,7 hPa 0,0 mm O-SO 119 4,8 km/h (1 Bft)
20.02.2017 12:10 2,6 C 96 % 1024,7 hPa 0,0 mm SO 132 4,8 km/h (1 Bft)
20.02.2017 12:15 2,6 C 96 % 1024,6 hPa 0,0 mm SO 146 6,4 km/h (2 Bft)
20.02.2017 12:20 2,6 C 96 % 1024,4 hPa 0,0 mm SO 130 6,4 km/h (2 Bft)
20.02.2017 12:25 2,6 C 96 % 1024,3 hPa 0,0 mm SO 125 4,8 km/h (1 Bft)
20.02.2017 12:30 2,6 C 96 % 1024,2 hPa 0,0 mm SO 125 3,2 km/h (1 Bft)
20.02.2017 12:35 2,6 C 96 % 1024,1 hPa 0,0 mm SO 125 3,2 km/h (1 Bft)
20.02.2017 12:40 2,7 C 96 % 1024,1 hPa 0,0 mm SO 125 3,2 km/h (1 Bft)
20.02.2017 12:45 2,7 C 95 % 1024,0 hPa 0,0 mm SO 125 3,2 km/h (1 Bft)
20.02.2017 12:50 2,7 C 96 % 1024,0 hPa 0,0 mm SO 125 3,2 km/h (1 Bft)
20.02.2017 12:55 2,8 C 95 % 1023,9 hPa 0,0 mm SO 125 1,6 km/h (1 Bft)
20.02.2017 13:00 2,8 C 95 % 1023,8 hPa 0,0 mm SO 125 0,0 km/h (0 Bft)
20.02.2017 13:05 3,1 C 95 % 1023,8 hPa 0,0 mm SO 125 0,0 km/h (0 Bft)
20.02.2017 13:10 3,1 C 95 % 1023,7 hPa 0,0 mm SO 125 0,0 km/h (0 Bft)
20.02.2017 13:15 3,1 C 95 % 1023,6 hPa 0,0 mm SO 125 0,0 km/h (0 Bft)
20.02.2017 13:20 3,2 C 95 % 1023,7 hPa 0,0 mm SO 125 1,6 km/h (1 Bft)
20.02.2017 13:25 3,2 C 95 % 1023,6 hPa 0,0 mm SO 125 1,6 km/h (1 Bft)
20.02.2017 13:30 3,3 C 95 % 1023,5 hPa 0,0 mm SO 125 1,6 km/h (1 Bft)
20.02.2017 13:35 3,5 C 95 % 1023,3 hPa 0,0 mm SO 125 0,0 km/h (0 Bft)
20.02.2017 13:40 3,6 C 95 % 1023,3 hPa 0,0 mm SO 125 3,2 km/h (1 Bft)
20.02.2017 13:45 3,7 C 94 % 1023,1 hPa 0,0 mm SO 125 1,6 km/h (1 Bft)
20.02.2017 13:50 3,8 C 94 % 1023,1 hPa 0,0 mm SO 125 3,2 km/h (1 Bft)
20.02.2017 13:55 3,7 C 93 % 1023,0 hPa 0,0 mm SO 125 1,6 km/h (1 Bft)
20.02.2017 14:00 3,9 C 93 % 1023,0 hPa 0,0 mm SO 125 3,2 km/h (1 Bft)
20.02.2017 14:05 3,9 C 93 % 1023,0 hPa 0,0 mm SO 125 1,6 km/h (1 Bft)
20.02.2017 14:10 4,0 C 93 % 1022,9 hPa 0,0 mm SO 125 4,8 km/h (1 Bft)
20.02.2017 14:15 4,1 C 92 % 1022,8 hPa 0,0 mm SO 132 4,8 km/h (1 Bft)
20.02.2017 14:20 4,0 C 92 % 1022,7 hPa 0,0 mm SO 132 3,2 km/h (1 Bft)
20.02.2017 14:25 4,1 C 92 % 1022,7 hPa 0,0 mm SO 132 0,0 km/h (0 Bft)
20.02.2017 14:30 4,2 C 92 % 1022,7 hPa 0,0 mm SO 132 0,0 km/h (0 Bft)
20.02.2017 14:35 4,3 C 92 % 1022,6 hPa 0,0 mm SO 132 4,8 km/h (1 Bft)
20.02.2017 14:40 4,4 C 92 % 1022,6 hPa 0,0 mm SO 132 1,6 km/h (1 Bft)
20.02.2017 14:45 4,5 C 91 % 1022,6 hPa 0,0 mm SO 132 0,0 km/h (0 Bft)
20.02.2017 14:50 4,6 C 91 % 1022,4 hPa 0,0 mm SO 132 3,2 km/h (1 Bft)
20.02.2017 14:55 4,6 C 90 % 1022,4 hPa 0,0 mm SO 132 1,6 km/h (1 Bft)
20.02.2017 15:00 4,6 C 91 % 1022,3 hPa 0,0 mm S-SO 152 4,8 km/h (1 Bft)
20.02.2017 15:05 4,6 C 90 % 1022,2 hPa 0,0 mm S-SO 152 3,2 km/h (1 Bft)
20.02.2017 15:10 4,6 C 90 % 1022,2 hPa 0,0 mm S-SO 152 0,0 km/h (0 Bft)
20.02.2017 15:15 4,6 C 90 % 1022,2 hPa 0,0 mm S-SO 152 0,0 km/h (0 Bft)
20.02.2017 15:20 4,7 C 90 % 1022,2 hPa 0,0 mm S-SO 152 0,0 km/h (0 Bft)
20.02.2017 15:25 4,9 C 91 % 1022,0 hPa 0,0 mm S-SO 152 0,0 km/h (0 Bft)
20.02.2017 15:30 5,0 C 90 % 1022,1 hPa 0,0 mm S-SO 152 0,0 km/h (0 Bft)
20.02.2017 15:35 4,8 C 90 % 1022,1 hPa 0,0 mm S-SO 152 0,0 km/h (0 Bft)
20.02.2017 15:40 4,6 C 90 % 1021,9 hPa 0,0 mm S-SO 152 0,0 km/h (0 Bft)
20.02.2017 15:45 4,5 C 91 % 1021,9 hPa 0,0 mm O 89 4,8 km/h (1 Bft)
20.02.2017 15:50 4,6 C 91 % 1021,9 hPa 0,0 mm O 89 4,8 km/h (1 Bft)
20.02.2017 15:55 4,7 C 91 % 1021,9 hPa 0,0 mm O 89 3,2 km/h (1 Bft)
20.02.2017 16:00 4,4 C 91 % 1021,8 hPa 0,0 mm O 89 1,6 km/h (1 Bft)
20.02.2017 16:05 4,3 C 92 % 1021,7 hPa 0,0 mm O 89 0,0 km/h (0 Bft)
20.02.2017 16:10 4,5 C 93 % 1021,6 hPa 0,0 mm O 89 0,0 km/h (0 Bft)
20.02.2017 16:15 4,7 C 93 % 1021,5 hPa 0,0 mm O 89 0,0 km/h (0 Bft)
20.02.2017 16:20 4,7 C 92 % 1021,5 hPa 0,0 mm O 89 0,0 km/h (0 Bft)
20.02.2017 16:25 4,3 C 92 % 1021,5 hPa 0,0 mm O 89 0,0 km/h (0 Bft)
20.02.2017 16:30 4,3 C 92 % 1021,5 hPa 0,0 mm O 89 0,0 km/h (0 Bft)
20.02.2017 16:35 4,2 C 92 % 1021,5 hPa 0,0 mm O 89 0,0 km/h (0 Bft)
20.02.2017 16:40 4,1 C 92 % 1021,5 hPa 0,0 mm O 89 0,0 km/h (0 Bft)
20.02.2017 16:45 4,1 C 92 % 1021,5 hPa 0,0 mm O 89 0,0 km/h (0 Bft)
20.02.2017 16:50 4,2 C 93 % 1021,5 hPa 0,0 mm O 89 0,0 km/h (0 Bft)
20.02.2017 16:55 4,1 C 93 % 1021,5 hPa 0,0 mm O 89 0,0 km/h (0 Bft)
20.02.2017 17:00 4,0 C 93 % 1021,5 hPa 0,0 mm O 89 0,0 km/h (0 Bft)
20.02.2017 17:05 3,7 C 93 % 1021,5 hPa 0,0 mm O 89 0,0 km/h (0 Bft)
20.02.2017 17:10 3,7 C 94 % 1021,5 hPa 0,0 mm O 89 0,0 km/h (0 Bft)
20.02.2017 17:15 3,6 C 94 % 1021,5 hPa 0,0 mm O 89 0,0 km/h (0 Bft)
20.02.2017 17:20 3,7 C 94 % 1021,5 hPa 0,0 mm O 89 0,0 km/h (0 Bft)
20.02.2017 17:25 3,7 C 94 % 1021,4 hPa 0,0 mm O 89 0,0 km/h (0 Bft)
20.02.2017 17:30 3,8 C 94 % 1021,5 hPa 0,0 mm O 89 0,0 km/h (0 Bft)
20.02.2017 17:35 3,7 C 94 % 1021,6 hPa 0,0 mm O 89 0,0 km/h (0 Bft)
20.02.2017 17:40 3,4 C 94 % 1021,6 hPa 0,0 mm O 89 0,0 km/h (0 Bft)
20.02.2017 17:45 3,4 C 94 % 1021,6 hPa 0,0 mm O 89 0,0 km/h (0 Bft)
20.02.2017 17:50 3,4 C 94 % 1021,6 hPa 0,0 mm O 89 0,0 km/h (0 Bft)
20.02.2017 17:55 3,4 C 94 % 1021,6 hPa 0,0 mm O 89 0,0 km/h (0 Bft)
20.02.2017 18:00 3,2 C 94 % 1021,6 hPa 0,0 mm O 89 0,0 km/h (0 Bft)
20.02.2017 18:05 3,1 C 94 % 1021,6 hPa 0,0 mm O 89 0,0 km/h (0 Bft)
20.02.2017 18:10 2,8 C 94 % 1021,7 hPa 0,0 mm O 89 0,0 km/h (0 Bft)
20.02.2017 18:15 2,8 C 95 % 1021,6 hPa 0,0 mm O 89 0,0 km/h (0 Bft)
20.02.2017 18:20 2,8 C 94 % 1021,5 hPa 0,0 mm O 89 0,0 km/h (0 Bft)
20.02.2017 18:25 2,8 C 94 % 1021,5 hPa 0,0 mm O 89 0,0 km/h (0 Bft)
20.02.2017 18:30 2,8 C 94 % 1021,6 hPa 0,0 mm O 89 0,0 km/h (0 Bft)
20.02.2017 18:35 2,6 C 94 % 1021,6 hPa 0,0 mm O 89 0,0 km/h (0 Bft)
20.02.2017 18:40 2,4 C 94 % 1021,6 hPa 0,0 mm O 89 0,0 km/h (0 Bft)
20.02.2017 18:45 2,4 C 95 % 1021,5 hPa 0,0 mm O 89 0,0 km/h (0 Bft)
20.02.2017 18:50 2,6 C 95 % 1021,4 hPa 0,0 mm O 89 0,0 km/h (0 Bft)
20.02.2017 18:55 2,7 C 95 % 1021,6 hPa 0,0 mm O 89 0,0 km/h (0 Bft)
20.02.2017 19:00 2,7 C 95 % 1021,5 hPa 0,0 mm O 89 0,0 km/h (0 Bft)
20.02.2017 19:05 2,3 C 95 % 1021,5 hPa 0,0 mm O 89 0,0 km/h (0 Bft)
20.02.2017 19:10 2,2 C 94 % 1021,5 hPa 0,0 mm O 89 0,0 km/h (0 Bft)
20.02.2017 19:15 2,2 C 95 % 1021,5 hPa 0,0 mm O 89 0,0 km/h (0 Bft)
20.02.2017 19:20 2,3 C 95 % 1021,6 hPa 0,0 mm O 89 0,0 km/h (0 Bft)
20.02.2017 19:25 2,3 C 95 % 1021,5 hPa 0,0 mm O 89 0,0 km/h (0 Bft)
20.02.2017 19:30 2,0 C 94 % 1021,5 hPa 0,0 mm O 89 0,0 km/h (0 Bft)
20.02.2017 19:35 2,1 C 95 % 1021,5 hPa 0,0 mm O 89 0,0 km/h (0 Bft)
20.02.2017 19:40 2,2 C 95 % 1021,6 hPa 0,0 mm O 89 0,0 km/h (0 Bft)
20.02.2017 19:45 2,1 C 95 % 1021,5 hPa 0,0 mm O 89 0,0 km/h (0 Bft)
20.02.2017 19:50 2,0 C 95 % 1021,5 hPa 0,0 mm O 89 0,0 km/h (0 Bft)
20.02.2017 19:55 2,2 C 95 % 1021,6 hPa 0,0 mm O 89 0,0 km/h (0 Bft)
20.02.2017 20:00 2,1 C 95 % 1021,6 hPa 0,0 mm O 89 0,0 km/h (0 Bft)
20.02.2017 20:05 2,0 C 95 % 1021,6 hPa 0,0 mm O 89 0,0 km/h (0 Bft)
20.02.2017 20:10 2,2 C 95 % 1021,6 hPa 0,0 mm O 89 0,0 km/h (0 Bft)
20.02.2017 20:15 2,3 C 95 % 1021,5 hPa 0,0 mm O 89 0,0 km/h (0 Bft)
20.02.2017 20:20 2,3 C 95 % 1021,5 hPa 0,0 mm O 89 0,0 km/h (0 Bft)
20.02.2017 20:25 2,1 C 95 % 1021,5 hPa 0,0 mm O 89 0,0 km/h (0 Bft)
20.02.2017 20:30 2,2 C 95 % 1021,5 hPa 0,0 mm O 89 0,0 km/h (0 Bft)
20.02.2017 20:35 2,2 C 95 % 1021,4 hPa 0,0 mm O 89 0,0 km/h (0 Bft)
20.02.2017 20:40 2,2 C 95 % 1021,4 hPa 0,0 mm O 89 0,0 km/h (0 Bft)
20.02.2017 20:45 2,1 C 95 % 1021,3 hPa 0,0 mm O 89 0,0 km/h (0 Bft)
20.02.2017 20:50 2,1 C 95 % 1021,3 hPa 0,0 mm O 89 0,0 km/h (0 Bft)
20.02.2017 20:55 2,1 C 95 % 1021,2 hPa 0,0 mm O 89 0,0 km/h (0 Bft)
20.02.2017 21:00 2,0 C 95 % 1021,1 hPa 0,0 mm O 89 0,0 km/h (0 Bft)
20.02.2017 21:05 2,1 C 95 % 1021,2 hPa 0,0 mm O 89 0,0 km/h (0 Bft)
20.02.2017 21:10 2,2 C 95 % 1021,2 hPa 0,0 mm O 89 0,0 km/h (0 Bft)
20.02.2017 21:15 2,3 C 95 % 1021,1 hPa 0,0 mm O 89 0,0 km/h (0 Bft)
20.02.2017 21:20 2,2 C 95 % 1021,0 hPa 0,0 mm O 89 0,0 km/h (0 Bft)
20.02.2017 21:25 2,2 C 95 % 1020,9 hPa 0,0 mm O 89 0,0 km/h (0 Bft)
20.02.2017 21:30 2,3 C 95 % 1020,8 hPa 0,0 mm O 89 0,0 km/h (0 Bft)
20.02.2017 21:35 2,3 C 95 % 1020,8 hPa 0,0 mm O 89 0,0 km/h (0 Bft)
20.02.2017 21:40 2,2 C 95 % 1020,8 hPa 0,0 mm O 89 0,0 km/h (0 Bft)
20.02.2017 21:45 2,1 C 95 % 1020,8 hPa 0,0 mm N 0 0,0 km/h (0 Bft)
20.02.2017 21:50 2,2 C 95 % 1020,9 hPa 0,0 mm N 0 0,0 km/h (0 Bft)
20.02.2017 21:55 2,3 C 95 % 1020,8 hPa 0,0 mm N 0 0,0 km/h (0 Bft)
20.02.2017 22:00 2,4 C 95 % 1020,9 hPa 0,0 mm N 0 0,0 km/h (0 Bft)
20.02.2017 22:05 2,3 C 95 % 1020,9 hPa 0,0 mm N 0 0,0 km/h (0 Bft)
20.02.2017 22:10 2,2 C 95 % 1020,8 hPa 0,0 mm N 0 0,0 km/h (0 Bft)
20.02.2017 22:15 2,2 C 95 % 1020,8 hPa 0,0 mm N 0 0,0 km/h (0 Bft)
20.02.2017 22:20 2,3 C 95 % 1020,8 hPa 0,0 mm N 0 0,0 km/h (0 Bft)
20.02.2017 22:25 2,3 C 95 % 1020,6 hPa 0,0 mm N 0 0,0 km/h (0 Bft)
20.02.2017 22:30 2,1 C 95 % 1020,6 hPa 0,0 mm N 0 0,0 km/h (0 Bft)
20.02.2017 22:35 2,2 C 95 % 1020,6 hPa 0,0 mm N 0 0,0 km/h (0 Bft)
20.02.2017 22:40 2,1 C 95 % 1020,6 hPa 0,0 mm N 0 0,0 km/h (0 Bft)
20.02.2017 22:45 2,2 C 95 % 1020,5 hPa 0,0 mm N 0 0,0 km/h (0 Bft)
20.02.2017 22:50 2,1 C 95 % 1020,6 hPa 0,0 mm N 0 0,0 km/h (0 Bft)
20.02.2017 22:55 2,2 C 95 % 1020,6 hPa 0,0 mm N 0 0,0 km/h (0 Bft)
20.02.2017 23:00 2,3 C 95 % 1020,4 hPa 0,0 mm O 90 4,8 km/h (1 Bft)
20.02.2017 23:05 2,4 C 95 % 1020,5 hPa 0,0 mm O 90 3,2 km/h (1 Bft)
20.02.2017 23:10 2,5 C 95 % 1020,6 hPa 0,0 mm O 90 3,2 km/h (1 Bft)
20.02.2017 23:15 2,3 C 95 % 1020,8 hPa 0,0 mm O 90 3,2 km/h (1 Bft)
20.02.2017 23:20 2,3 C 95 % 1020,8 hPa 0,0 mm O 90 1,6 km/h (1 Bft)
20.02.2017 23:25 2,4 C 95 % 1020,7 hPa 0,0 mm O 89 0,0 km/h (0 Bft)
20.02.2017 23:30 2,3 C 95 % 1020,6 hPa 0,0 mm O 89 0,0 km/h (0 Bft)
20.02.2017 23:35 2,2 C 95 % 1020,7 hPa 0,0 mm O 89 0,0 km/h (0 Bft)
20.02.2017 23:40 2,3 C 95 % 1020,6 hPa 0,2 mm O 89 0,0 km/h (0 Bft)
20.02.2017 23:45 2,6 C 95 % 1020,7 hPa 0,0 mm O 88 4,8 km/h (1 Bft)
20.02.2017 23:50 2,9 C 95 % 1020,7 hPa 0,0 mm O 87 3,2 km/h (1 Bft)
20.02.2017 23:55 3,1 C 95 % 1020,8 hPa 0,0 mm O 88 4,8 km/h (1 Bft)
_ Min-Zeit 00:25 14:55 23:00 - - - 00:00
Minimum _ 0,6 C 90 % 1020,4 hPa - - - 0,0 km/h (0 Bft)
_ Max-Zeit 15:30 07:05 11:15 01:40 - - 03:35
Maximum _ 5,0 C 96 % 1025,6 hPa 0,2 mm - - 8,0 km/h
W (2 Bft)
Durchschnitt _ 2,3 C 95 % 1023,5 hPa #3,0 mm W - 1,1 km/h (1 Bft)